Regional Weather Roundup
Issued by NWS

Home | Current Version | Previous Version | Graphics & Text | Print | Product List | Glossary On
Versions: 1 2 3 4 5 6 7 8 9 10 11 12 13 14 15 16 17 18 19 20 21 22 23 24 25 26 27 28 29 30 31 32 33 34 35 36 37 38 39 40 41 42 43 44 45 46 47 48 49 50
414
ASUS43 KLMK 282302
RWRKY
KENTUCKY REGIONAL WEATHER ROUNDUP
NATIONAL WEATHER SERVICE LOUISVILLE KY
700 PM EDT FRI APR 28 2017

NOTE "FAIR" INDICATES FEW OR NO CLOUDS BELOW 12,000 FEET
WITH NO SIGNIFICANT WEATHER AND/OR OBSTRUCTIONS TO VISIBILITY.

KYZ001>023-026-027-061>063-070>075-290000-
WESTERN AND SOUTH CENTRAL KENTUCKY

CITY           SKY/WX    TMP DP  RH WIND       PRES   REMARKS
PADUCAH        SUNNY     78  68  71 S14G22    29.78R
HENDERSON      MOSUNNY   74  68  81 S15G25    29.79R
OWENSBORO      CLOUDY    75  68  78 S13       29.81R
HOPKINSVILLE   SUNNY     79  69  71 S8        29.83R
BOWLING GREEN  CLOUDY    78  69  73 S7        29.87R
GLASGOW        NOT AVBL
$$

KYZ024-025-028>034-038-045-046-053-290000-
NORTH CENTRAL KENTUCKY

CITY           SKY/WX    TMP DP  RH WIND       PRES   REMARKS
LOUISVILLE/SDF CLOUDY    77  63  61 S12       29.83S
LOUISVILLE/LOU CLOUDY    77  64  64 S9        29.83S
FORT KNOX      DRIZZLE   74  64  71 S10       29.83S
$$

KYZ035>037-039>044-047>052-055>060-089>105-290000-
NORTHEAST KENTUCKY

CITY           SKY/WX    TMP DP  RH WIND       PRES   REMARKS
LEXINGTON      CLOUDY    78  60  53 S13       29.89F
COVINGTON      LGT RAIN  71  57  61 SE7       29.86F
FRANKFORT      CLOUDY    77  61  57 SE6       29.85S
$$

KYZ054-064>069-076>088-106>120-290000-
SOUTHEAST KENTUCKY

CITY           SKY/WX    TMP DP  RH WIND       PRES   REMARKS
JACKSON        PTSUNNY   79  57  46 CALM      29.95R
LONDON         MOSUNNY   79  59  50 S13G20    29.95S
SOMERSET       NOT AVBL
MIDDLESBORO    MOSUNNY   80  63  57 W8        29.97S
MONTICELLO     MOCLDY    78  65  63 VRB6      29.93F
$$





USA.gov is the U.S. government's official web portal to all federal, state and local government web resources and services.